EW0706 Weather Reports


Display with metric or nautical units.
time (UTC)temp
F
wind
direction
speed
MPH
gust
MPH
rain 1hr
in
rain 24hr
in
rain mn
in
humidity
%
barometer
mb
20260502151629 83 0.0 0.0 0.00 0.00 0.00 24 1012.7
20260502150556 82 0.0 0.0 0.00 0.00 0.00 23 1012.7
20260502130400 73 0.0 0.0 0.00 0.00 0.00 22 1010.8
20260502123325 72 0.0 0.0 0.00 0.00 0.00 23 1010.4
20260502122324 72 0.0 0.0 0.00 0.00 0.00 23 1010.4
20260502121323 72 0.0 0.0 0.00 0.00 0.00 22 1010.5
20260502120322 73 0.0 0.0 0.00 0.00 0.00 22 1010.5
20260502115320 74 0.0 0.0 0.00 0.00 0.00 22 1010.2
20260502114318 74 0.0 0.0 0.00 0.00 0.00 21 1010.2
20260502113306 75 0.0 0.0 0.00 0.00 0.00 21 1010.2
20260502112306 75 0.0 0.0 0.00 0.00 0.00 21 1010.2
20260502111304 75 0.0 0.0 0.00 0.00 0.00 21 1010.2
20260502110231 75 0.0 0.0 0.00 0.00 0.00 22 1010.2
20260502105230 74 0.0 0.0 0.00 0.00 0.00 22 1010.2
20260502104229 74 0.0 0.0 0.00 0.00 0.00 22 1010.2
20260502103228 74 0.0 0.0 0.00 0.00 0.00 22 1009.9
20260502102227 74 0.0 0.0 0.00 0.00 0.00 23 1009.8
20260502101226 74 0.0 0.0 0.00 0.00 0.00 23 1009.8
20260502100225 74 0.0 0.0 0.00 0.00 0.00 23 1009.8
20260502091221 75 0.0 0.0 0.00 0.00 0.00 22 1009.5
20260502090220 75 0.0 0.0 0.00 0.00 0.00 22 1009.5
20260502071138 80 0.0 0.0 0.00 0.00 0.00 16 1008.8
20260502070137 80 0.0 0.0 0.00 0.00 0.00 16 1008.9
20260502065136 80 0.0 0.0 0.00 0.00 0.00 16 1008.9
20260502064134 80 0.0 0.0 0.00 0.00 0.00 16 1008.8
20260502063102 80 0.0 0.0 0.00 0.00 0.00 16 1008.8
20260502062101 79 0.0 0.0 0.00 0.00 0.00 16 1008.8
20260502061100 79 0.0 0.0 0.00 0.00 0.00 17 1008.7
20260502060058 80 0.0 0.0 0.00 0.00 0.00 17 1008.7
20260502055027 82 0.0 0.0 0.00 0.00 0.00 16 1008.4
20260502054026 82 0.0 0.0 0.00 0.00 0.00 15 1008.4
20260502052953 81 0.0 0.0 0.00 0.00 0.00 16 1008.4
20260502051953 80 0.0 0.0 0.00 0.00 0.00 16 1008.4
20260502050952 81 0.0 0.0 0.00 0.00 0.00 16 1008.4
20260502045951 81 0.0 0.0 0.00 0.00 0.00 16 1008.4
20260502044950 82 0.0 0.0 0.00 0.00 0.00 15 1008.4
20260502043949 82 0.0 0.0 0.00 0.00 0.00 15 1008.4
20260502042948 83 0.0 0.0 0.00 0.00 0.00 15 1008.0
20260502041947 83 0.0 0.0 0.00 0.00 0.00 15 1008.0
20260502040915 84 0.0 0.0 0.00 0.00 0.00 15 1008.0
20260502035843 84 0.0 0.0 0.00 0.00 0.00 15 1008.0
20260502034842 84 0.0 0.0 0.00 0.00 0.00 15 1007.7
20260502033841 84 0.0 0.0 0.00 0.00 0.00 15 1007.7
20260502032840 84 0.0 0.0 0.00 0.00 0.00 15 1007.7
20260502031807 84 0.0 0.0 0.00 0.00 0.00 16 1007.3
20260502030806 84 0.0 0.0 0.00 0.00 0.00 16 1007.3
20260502025805 84 0.0 0.0 0.00 0.00 0.00 16 1006.9
20260502022154 87 0.0 0.0 0.00 0.00 0.00 16 1007.0
20260502021152 87 0.0 0.0 0.00 0.00 0.00 16 1007.0
20260502020152 88 0.0 0.0 0.00 0.00 0.00 16 1006.6
20260502015151 88 0.0 0.0 0.00 0.00 0.00 16 1007.0
20260502014149 89 0.0 0.0 0.00 0.00 0.00 15 1006.6
20260502013148 89 0.0 0.0 0.00 0.00 0.00 15 1006.6
20260502012147 89 0.0 0.0 0.00 0.00 0.00 15 1006.6
20260502011146 90 0.0 0.0 0.00 0.00 0.00 16 1006.9
20260502010145 89 0.0 0.0 0.00 0.00 0.00 16 1006.6
20260502005144 90 0.0 0.0 0.00 0.00 0.00 16 1006.6
20260502004143 90 0.0 0.0 0.00 0.00 0.00 15 1006.9
20260502003111 90 0.0 0.0 0.00 0.00 0.00 15 1007.0
20260502002110 91 0.0 0.0 0.00 0.00 0.00 15 1006.7
20260502001108 91 0.0 0.0 0.00 0.00 0.00 16 1006.7
20260502000107 91 0.0 0.0 0.00 0.00 0.00 16 1006.7
20260501232122 90 0.0 0.0 0.00 0.00 0.00 17 1007.0
20260501231121 91 0.0 0.0 0.00 0.00 0.00 17 1007.0
20260501230120 90 0.0 0.0 0.00 0.00 0.00 18 1007.0
20260501225120 90 0.0 0.0 0.00 0.00 0.00 17 1007.4
20260501224118 90 0.0 0.0 0.00 0.00 0.00 17 1007.4
20260501223117 90 0.0 0.0 0.00 0.00 0.00 19 1007.4
20260501222116 90 0.0 0.0 0.00 0.00 0.00 19 1007.7
20260501221115 89 0.0 0.0 0.00 0.00 0.00 17 1007.7
20260501220114 89 0.0 0.0 0.00 0.00 0.00 18 1007.8
20260501215113 89 0.0 0.0 0.00 0.00 0.00 19 1008.1
20260501214112 90 0.0 0.0 0.00 0.00 0.00 19 1008.2
20260501213110 89 0.0 0.0 0.00 0.00 0.00 19 1008.1
20260501212109 89 0.0 0.0 0.00 0.00 0.00 19 1008.5
20260501211108 89 0.0 0.0 0.00 0.00 0.00 20 1008.5
20260501210107 89 0.0 0.0 0.00 0.00 0.00 20 1008.8
20260501205034 89 0.0 0.0 0.00 0.00 0.00 20 1008.8
20260501204033 88 0.0 0.0 0.00 0.00 0.00 20 1008.8
20260501203032 88 0.0 0.0 0.00 0.00 0.00 20 1008.8
20260501201959 87 0.0 0.0 0.00 0.00 0.00 20 1009.1
20260501200928 87 0.0 0.0 0.00 0.00 0.00 20 1009.1
20260501195926 86 0.0 0.0 0.00 0.00 0.00 21 1009.1
20260501194854 87 0.0 0.0 0.00 0.00 0.00 21 1009.2
20260501193822 86 0.0 0.0 0.00 0.00 0.00 22 1009.4
20260501192821 85 0.0 0.0 0.00 0.00 0.00 22 1009.4
20260501191820 85 0.0 0.0 0.00 0.00 0.00 22 1009.8
20260501190819 84 0.0 0.0 0.00 0.00 0.00 23 1009.7
20260501185818 85 0.0 0.0 0.00 0.00 0.00 22 1010.1
20260501184817 84 0.0 0.0 0.00 0.00 0.00 23 1010.1
20260501183816 84 0.0 0.0 0.00 0.00 0.00 23 1010.5
20260501182743 84 0.0 0.0 0.00 0.00 0.00 23 1010.5
20260501181742 83 0.0 0.0 0.00 0.00 0.00 24 1010.8
20260501180741 82 0.0 0.0 0.00 0.00 0.00 24 1010.8
20260501172811 80 0.0 0.0 0.00 0.00 0.00 26 1011.1
20260501171810 81 0.0 0.0 0.00 0.00 0.00 26 1011.2
20260501170808 81 0.0 0.0 0.00 0.00 0.00 27 1011.2
20260501165807 80 0.0 0.0 0.00 0.00 0.00 28 1011.2
20260501164633 79 0.0 0.0 0.00 0.00 0.00 28 1011.1
20260501163601 78 0.0 0.0 0.00 0.00 0.00 28 1011.1
20260501162600 78 0.0 0.0 0.00 0.00 0.00 29 1011.1
20260501161559 77 0.0 0.0 0.00 0.00 0.00 29 1011.1
20260501160558 77 0.0 0.0 0.00 0.00 0.00 30 1011.1
20260501155558 76 0.0 0.0 0.00 0.00 0.00 30 1011.1
20260501154557 76 0.0 0.0 0.00 0.00 0.00 30 1011.1
20260501153556 77 0.0 0.0 0.00 0.00 0.00 31 1010.8